| time (UTC) | temp C | wind direction | speed KPH | gust KPH | rain 1hr cm | rain 24hr cm | rain mn cm | humidity % | barometer mb |
| 20260831094918 | 27 | 71 | 9.7 | 22.5 | 0.00 | 0.00 | 0.00 | 58 | 1009.7 |
| 20260831094018 | 27 | 67 | 11.3 | 20.9 | 0.00 | 0.00 | 0.00 | 57 | 1009.8 |
| 20260831092218 | 26 | 75 | 12.9 | 29.0 | 0.00 | 0.00 | 0.00 | 60 | 1010.1 |
| 20260831091318 | 26 | 82 | 17.7 | 30.6 | 0.00 | 0.00 | 0.00 | 62 | 1010.1 |
| 20260831090418 | 26 | 78 | 16.1 | 32.2 | 0.00 | 0.00 | 0.00 | 63 | 1010.3 |
| 20260831085518 | 26 | 71 | 16.1 | 29.0 | 0.00 | 0.00 | 0.00 | 64 | 1010.5 |
| 20260831084618 | 26 | 69 | 14.5 | 27.4 | 0.00 | 0.00 | 0.00 | 65 | 1010.3 |
| 20260831083718 | 26 | 76 | 14.5 | 27.4 | 0.00 | 0.00 | 0.00 | 65 | 1010.5 |
| 20260831081918 | 27 | 61 | 9.7 | 22.5 | 0.00 | 0.00 | 0.00 | 63 | 1010.6 |
| 20260831081018 | 27 | 60 | 8.0 | 19.3 | 0.00 | 0.00 | 0.00 | 64 | 1010.8 |
| 20260831080118 | 27 | 49 | 6.4 | 19.3 | 0.00 | 0.00 | 0.00 | 65 | 1010.7 |
| 20260831075218 | 27 | 24 | 8.0 | 14.5 | 0.00 | 0.00 | 0.00 | 67 | 1010.9 |
| 20260831074318 | 27 | 341 | 11.3 | 22.5 | 0.00 | 0.00 | 0.00 | 67 | 1010.9 |
| 20260831073418 | 26 | 337 | 8.0 | 22.5 | 0.00 | 0.00 | 0.00 | 69 | 1010.8 |
| 20260831072518 | 26 | 357 | 9.7 | 24.1 | 0.00 | 0.00 | 0.00 | 69 | 1011.1 |
| 20260831070718 | 27 | 30 | 14.5 | 29.0 | 0.00 | 0.00 | 0.00 | 68 | 1010.5 |
| 20260831065818 | 27 | 354 | 16.1 | 35.4 | 0.00 | 0.00 | 0.00 | 67 | 1010.5 |
| 20260831064918 | 27 | 345 | 16.1 | 32.2 | 0.00 | 0.00 | 0.00 | 67 | 1009.9 |
| 20260831064018 | 27 | 339 | 14.5 | 40.2 | 0.00 | 0.00 | 0.00 | 68 | 1009.8 |
| 20260831063118 | 27 | 349 | 17.7 | 33.8 | 0.00 | 0.00 | 0.00 | 68 | 1009.7 |
| 20260831062218 | 27 | 346 | 16.1 | 33.8 | 0.00 | 0.00 | 0.00 | 65 | 1009.6 |
| 20260831061318 | 28 | 347 | 12.9 | 35.4 | 0.00 | 0.00 | 0.00 | 61 | 1009.8 |
| 20260831060418 | 28 | 358 | 9.7 | 32.2 | 0.00 | 0.00 | 0.00 | 62 | 1009.9 |
| 20260831054618 | 29 | 271 | 4.8 | 16.1 | 0.00 | 0.00 | 0.00 | 60 | 1009.1 |
| 20260831052818 | 28 | 253 | 11.3 | 22.5 | 0.00 | 0.00 | 0.00 | 64 | 1008.9 |
| 20260831051018 | 27 | 229 | 11.3 | 33.8 | 0.00 | 0.00 | 0.00 | 65 | 1009.6 |
| 20260831045218 | 29 | 213 | 12.9 | 32.2 | 0.00 | 0.00 | 0.00 | 56 | 1010.0 |
| 20260831044318 | 30 | 198 | 17.7 | 33.8 | 0.00 | 0.00 | 0.00 | 55 | 1009.7 |
| 20260831043418 | 30 | 201 | 16.1 | 41.8 | 0.00 | 0.00 | 0.00 | 52 | 1009.3 |
| 20260831041618 | 31 | 202 | 14.5 | 33.8 | 0.00 | 0.00 | 0.00 | 46 | 1009.0 |
| 20260831040718 | 32 | 201 | 11.3 | 35.4 | 0.00 | 0.00 | 0.00 | 46 | 1008.9 |
| 20260831035818 | 33 | 201 | 12.9 | 35.4 | 0.00 | 0.00 | 0.00 | 45 | 1008.6 |
| 20260831034918 | 34 | 206 | 11.3 | 32.2 | 0.00 | 0.00 | 0.00 | 41 | 1008.6 |
| 20260831033118 | 37 | 306 | 1.6 | 8.0 | 0.00 | 0.00 | 0.00 | 32 | 1007.6 |
| 20260831032218 | 37 | 344 | 1.6 | 6.4 | 0.00 | 0.00 | 0.00 | 32 | 1007.5 |
| 20260831031318 | 37 | 341 | 1.6 | 4.8 | 0.00 | 0.00 | 0.00 | 32 | 1007.4 |
| 20260831030418 | 38 | 327 | 3.2 | 8.0 | 0.00 | 0.00 | 0.00 | 32 | 1007.3 |
| 20260831025518 | 38 | 302 | 4.8 | 9.7 | 0.00 | 0.00 | 0.00 | 32 | 1007.1 |
| 20260831024618 | 38 | 292 | 4.8 | 14.5 | 0.00 | 0.00 | 0.00 | 32 | 1007.2 |
| 20260831023718 | 38 | 301 | 3.2 | 12.9 | 0.00 | 0.00 | 0.00 | 32 | 1006.9 |
| 20260831022818 | 38 | 271 | 4.8 | 9.7 | 0.00 | 0.00 | 0.00 | 32 | 1006.8 |
| 20260831021018 | 38 | 304 | 3.2 | 8.0 | 0.00 | 0.00 | 0.00 | 31 | 1006.3 |
| 20260831020118 | 38 | 254 | 4.8 | 8.0 | 0.00 | 0.00 | 0.00 | 31 | 1006.3 |
| 20260831015218 | 38 | 267 | 6.4 | 12.9 | 0.00 | 0.00 | 0.00 | 31 | 1006.2 |
| 20260831014318 | 38 | 260 | 4.8 | 12.9 | 0.00 | 0.00 | 0.00 | 30 | 1006.0 |
| 20260831013418 | 38 | 297 | 4.8 | 11.3 | 0.00 | 0.00 | 0.00 | 30 | 1005.8 |
| 20260831012518 | 39 | 308 | 3.2 | 16.1 | 0.00 | 0.00 | 0.00 | 30 | 1005.8 |
| 20260831011618 | 39 | 285 | 1.6 | 4.8 | 0.00 | 0.00 | 0.00 | 30 | 1005.8 |
| 20260831010718 | 39 | 281 | 1.6 | 6.4 | 0.00 | 0.00 | 0.00 | 30 | 1005.9 |
| 20260831004018 | 40 | 255 | 6.4 | 12.9 | 0.00 | 0.00 | 0.00 | 29 | 1006.2 |
| 20260831003118 | 40 | 262 | 6.4 | 20.9 | 0.00 | 0.00 | 0.00 | 29 | 1006.2 |
| 20260831002218 | 40 | 280 | 3.2 | 11.3 | 0.00 | 0.00 | 0.00 | 28 | 1006.1 |
| 20260831001318 | 40 | 44 | 3.2 | 8.0 | 0.00 | 0.00 | 0.00 | 28 | 1006.1 |
| 20260831000417 | 40 | 81 | 3.2 | 6.4 | 0.00 | 0.00 | 0.00 | 28 | 1006.3 |
| 20260830235517 | 40 | 358 | 3.2 | 11.3 | 0.00 | 0.00 | 0.00 | 28 | 1006.4 |
| 20260830234617 | 41 | 254 | 4.8 | 12.9 | 0.00 | 0.00 | 0.00 | 28 | 1006.4 |
| 20260830233718 | 41 | 263 | 8.0 | 14.5 | 0.00 | 0.00 | 0.00 | 28 | 1006.5 |
| 20260830232817 | 41 | 300 | 8.0 | 17.7 | 0.00 | 0.00 | 0.00 | 27 | 1006.6 |
| 20260830231918 | 41 | 293 | 9.7 | 17.7 | 0.00 | 0.00 | 0.00 | 27 | 1006.7 |
| 20260830231018 | 41 | 311 | 6.4 | 17.7 | 0.00 | 0.00 | 0.00 | 27 | 1006.8 |
| 20260830225218 | 41 | 303 | 4.8 | 14.5 | 0.00 | 0.00 | 0.00 | 27 | 1007.1 |
| 20260830223417 | 41 | 237 | 4.8 | 12.9 | 0.00 | 0.00 | 0.00 | 28 | 1007.5 |
| 20260830222517 | 41 | 259 | 6.4 | 16.1 | 0.00 | 0.00 | 0.00 | 27 | 1007.6 |
| 20260830221617 | 41 | 280 | 4.8 | 19.3 | 0.00 | 0.00 | 0.00 | 27 | 1007.7 |
| 20260830220717 | 41 | 340 | 4.8 | 12.9 | 0.00 | 0.00 | 0.00 | 27 | 1007.9 |
| 20260830215817 | 41 | 330 | 4.8 | 12.9 | 0.00 | 0.00 | 0.00 | 27 | 1008.2 |
| 20260830214917 | 41 | 239 | 4.8 | 14.5 | 0.00 | 0.00 | 0.00 | 27 | 1008.4 |
| 20260830213117 | 41 | 359 | 4.8 | 12.9 | 0.00 | 0.00 | 0.00 | 27 | 1008.9 |
| 20260830212218 | 40 | 91 | 6.4 | 16.1 | 0.00 | 0.00 | 0.00 | 28 | 1008.9 |
| 20260830211317 | 40 | 138 | 4.8 | 16.1 | 0.00 | 0.00 | 0.00 | 28 | 1009.1 |
| 20260830210417 | 40 | 176 | 4.8 | 11.3 | 0.00 | 0.00 | 0.00 | 28 | 1009.3 |
| 20260830205517 | 40 | 196 | 4.8 | 12.9 | 0.00 | 0.00 | 0.00 | 28 | 1009.4 |
| 20260830204617 | 41 | 253 | 4.8 | 12.9 | 0.00 | 0.00 | 0.00 | 28 | 1009.7 |
| 20260830203717 | 41 | 226 | 4.8 | 12.9 | 0.00 | 0.00 | 0.00 | 29 | 1009.9 |
| 20260830202817 | 40 | 161 | 4.8 | 17.7 | 0.00 | 0.00 | 0.00 | 30 | 1010.0 |
| 20260830201917 | 40 | 49 | 4.8 | 12.9 | 0.00 | 0.00 | 0.00 | 30 | 1010.2 |
| 20260830200117 | 40 | 272 | 4.8 | 14.5 | 0.00 | 0.00 | 0.00 | 30 | 1010.5 |
| 20260830195217 | 39 | 163 | 4.8 | 16.1 | 0.00 | 0.00 | 0.00 | 31 | 1010.7 |
| 20260830194317 | 39 | 164 | 4.8 | 17.7 | 0.00 | 0.00 | 0.00 | 31 | 1010.7 |
| 20260830193417 | 39 | 142 | 4.8 | 14.5 | 0.00 | 0.00 | 0.00 | 30 | 1010.8 |
| 20260830192517 | 39 | 166 | 6.4 | 16.1 | 0.00 | 0.00 | 0.00 | 31 | 1010.9 |
| 20260830185817 | 38 | 126 | 4.8 | 17.7 | 0.00 | 0.00 | 0.00 | 32 | 1011.4 |
| 20260830184917 | 38 | 208 | 4.8 | 14.5 | 0.00 | 0.00 | 0.00 | 32 | 1011.7 |
| 20260830184017 | 38 | 172 | 4.8 | 16.1 | 0.00 | 0.00 | 0.00 | 33 | 1011.7 |
| 20260830183117 | 38 | 138 | 6.4 | 16.1 | 0.00 | 0.00 | 0.00 | 33 | 1011.9 |
| 20260830181317 | 38 | 168 | 6.4 | 24.1 | 0.00 | 0.00 | 0.00 | 33 | 1012.3 |
| 20260830180417 | 37 | 178 | 9.7 | 19.3 | 0.00 | 0.00 | 0.00 | 34 | 1012.3 |
| 20260830174617 | 37 | 179 | 6.4 | 22.5 | 0.00 | 0.00 | 0.00 | 34 | 1012.6 |
| 20260830171917 | 37 | 172 | 6.4 | 19.3 | 0.00 | 0.00 | 0.00 | 35 | 1012.7 |
| 20260830171017 | 36 | 175 | 8.0 | 16.1 | 0.00 | 0.00 | 0.00 | 36 | 1012.6 |
| 20260830170117 | 36 | 191 | 9.7 | 22.5 | 0.00 | 0.00 | 0.00 | 37 | 1012.7 |
| 20260830165217 | 35 | 178 | 8.0 | 19.3 | 0.00 | 0.00 | 0.00 | 38 | 1012.6 |
| 20260830164317 | 35 | 155 | 8.0 | 17.7 | 0.00 | 0.00 | 0.00 | 38 | 1012.6 |
| 20260830162517 | 35 | 146 | 4.8 | 19.3 | 0.00 | 0.00 | 0.00 | 39 | 1012.5 |
| 20260830161617 | 35 | 140 | 4.8 | 14.5 | 0.00 | 0.00 | 0.00 | 39 | 1012.6 |
| 20260830160717 | 34 | 118 | 6.4 | 16.1 | 0.00 | 0.00 | 0.00 | 41 | 1012.6 |
| 20260830154917 | 33 | 131 | 6.4 | 16.1 | 0.00 | 0.00 | 0.00 | 41 | 1012.5 |
| 20260830154017 | 33 | 145 | 4.8 | 19.3 | 0.00 | 0.00 | 0.00 | 40 | 1012.5 |
| 20260830153117 | 33 | 150 | 4.8 | 14.5 | 0.00 | 0.00 | 0.00 | 42 | 1012.6 |
| 20260830152217 | 33 | 147 | 4.8 | 14.5 | 0.00 | 0.00 | 0.00 | 42 | 1012.6 |
| 20260830151317 | 32 | 136 | 4.8 | 14.5 | 0.00 | 0.00 | 0.00 | 43 | 1012.6 |
| 20260830150417 | 32 | 135 | 4.8 | 16.1 | 0.00 | 0.00 | 0.00 | 44 | 1012.6 |
| 20260830145517 | 32 | 113 | 6.4 | 12.9 | 0.00 | 0.00 | 0.00 | 45 | 1012.8 |
| 20260830144617 | 31 | 104 | 6.4 | 16.1 | 0.00 | 0.00 | 0.00 | 46 | 1012.8 |
| 20260830143717 | 31 | 103 | 6.4 | 16.1 | 0.00 | 0.00 | 0.00 | 47 | 1012.7 |
| 20260830142817 | 31 | 113 | 6.4 | 17.7 | 0.00 | 0.00 | 0.00 | 48 | 1012.7 |
| 20260830141917 | 30 | 104 | 6.4 | 14.5 | 0.00 | 0.00 | 0.00 | 48 | 1012.5 |
| 20260830141017 | 30 | 103 | 6.4 | 19.3 | 0.00 | 0.00 | 0.00 | 50 | 1012.4 |
| 20260830140117 | 30 | 96 | 8.0 | 19.3 | 0.00 | 0.00 | 0.00 | 51 | 1012.3 |
| 20260830135217 | 30 | 99 | 8.0 | 19.3 | 0.00 | 0.00 | 0.00 | 50 | 1012.3 |
| 20260830134317 | 30 | 98 | 6.4 | 17.7 | 0.00 | 0.00 | 0.00 | 49 | 1012.3 |
| 20260830132517 | 30 | 107 | 1.6 | 11.3 | 0.00 | 0.00 | 0.00 | 48 | 1012.2 |
| 20260830131617 | 30 | 113 | 1.6 | 11.3 | 0.00 | 0.00 | 0.00 | 48 | 1012.0 |
| 20260830130717 | 30 | 108 | 3.2 | 11.3 | 0.00 | 0.00 | 0.00 | 47 | 1011.8 |
| 20260830125817 | 30 | 125 | 4.8 | 16.1 | 0.00 | 0.00 | 0.00 | 47 | 1011.5 |
| 20260830124917 | 30 | 102 | 6.4 | 17.7 | 0.00 | 0.00 | 0.00 | 47 | 1011.3 |
| 20260830124017 | 30 | 99 | 6.4 | 16.1 | 0.00 | 0.00 | 0.00 | 47 | 1011.1 |
| 20260830123117 | 30 | 103 | 3.2 | 16.1 | 0.00 | 0.00 | 0.00 | 46 | 1011.0 |
| 20260830121316 | 30 | 94 | 1.6 | 12.9 | 0.00 | 0.00 | 0.00 | 46 | 1010.8 |
| 20260830120417 | 30 | 115 | 0.0 | 6.4 | 0.00 | 0.00 | 0.00 | 47 | 1010.7 |
| 20260830114616 | 30 | 175 | 0.0 | 1.6 | 0.00 | 0.00 | 0.00 | 50 | 1010.5 |
| 20260830113717 | 30 | 178 | 0.0 | 4.8 | 0.00 | 0.00 | 0.00 | 50 | 1010.6 |
| 20260830112816 | 30 | 189 | 1.6 | 6.4 | 0.00 | 0.00 | 0.00 | 51 | 1010.7 |
| 20260830111917 | 30 | 163 | 1.6 | 8.0 | 0.00 | 0.00 | 0.00 | 51 | 1010.6 |
| 20260830111016 | 30 | 164 | 1.6 | 9.7 | 0.00 | 0.00 | 0.00 | 51 | 1010.5 |
| 20260830110117 | 30 | 160 | 1.6 | 9.7 | 0.00 | 0.00 | 0.00 | 50 | 1010.5 |
| 20260830105217 | 30 | 73 | 1.6 | 9.7 | 0.00 | 0.00 | 0.00 | 50 | 1010.5 |
| 20260830104316 | 30 | 72 | 1.6 | 4.8 | 0.00 | 0.00 | 0.00 | 50 | 1010.6 |
| 20260830102516 | 31 | 94 | 1.6 | 8.0 | 0.00 | 0.00 | 0.00 | 49 | 1010.7 |
| 20260830101617 | 31 | 78 | 3.2 | 8.0 | 0.00 | 0.00 | 0.00 | 49 | 1010.5 |
| 20260830100716 | 31 | 89 | 4.8 | 16.1 | 0.00 | 0.00 | 0.00 | 48 | 1010.3 |